Location: Shandelee
(41.8790°N, 74.8713°W)
Time: 03:58:59
(UTC+00:00)

NOSS 3-3 (A) - Pass Details

Date: 29 October 2020
Orbit: 826 x 1387 km, 63.4° (Epoch: 22 November)

Event Time Altitude Azimuth Distance (km) Brightness Sun altitude
Rises 23:24:20 0° 217° (SW) 3,389 7.5 -16.8°
Reaches altitude 10° 23:26:42 10° 218° (SW) 2,491 6.7 -17.2°
Maximum altitude 23:32:26 81° 306° (NW) 938 3.9 -18.3°
Enters shadow 23:38:34 12° 34° (NNE) 2,666 6.0 -19.4°
